User: anonymous
Location: Prairie State College
(41.5244°N, 87.6382°W)
Time: 02:39:22
(UTC-05:00)
Language:

Cosmos 1943 - Orbit

View from above orbital plane
View from above orbital plane
View from above satellite
View from above satellite

Ground track
Ground track

The orbit data is extracted from the following two-line orbital elements,

1 19119U 88039A   14203.17567142  .00000152  00000-0  10328-3 0  1966
2 19119 071.0043 169.6871 0013157 238.3528 206.8283 14.14937322352009
Epoch (UTC): 22 July 2014 04:12:58
Eccentricity: 0.0013157
inclination: 71.0043°
perigee height: 833 km
apogee height: 852 km
right ascension of ascending node: 169.6871°
argument of perigee: 238.3528°
revolutions per day: 14.14937322
mean anomaly at epoch: 206.8283°
orbit number at epoch: 35200

The dashed part of the orbit path shows where the satellite is in the earth's shadow,  

DLR